Location: Buisson
(44.2787°N, 4.9969°E)
Time: 07:29:27
(UTC+00:00)

Cosmos 1934 Rocket - Pass Details

Date: 18 April 2021
Orbit: 938 x 999 km, 83.0° (Epoch: 05 May)

Event Time Altitude Azimuth Distance (km) Brightness Sun altitude
Rises 02:29:08 0° 353° (N) 3,717 7.6 -22.8°
Reaches altitude 10° 02:31:42 10° 356° (N) 2,758 6.9 -22.5°
Maximum altitude 02:38:02 72° 80° (E) 1,029 4.2 -21.6°
Drops below altitude 10° 02:44:13 10° 165° (SSE) 2,699 6.1 -20.8°
Enters shadow 02:45:06 - 166° (SSE) 3,031 6.3 -20.7°
